WetterOnline ( https://www.wetteronline.de )

Wetter aktuell Groß Lindow

Aktuelles Wetter: Manschnow (16m)

6-stündlich | Neueste Meldungen
Ortszeit Temperatur Wetter
Do, 24.09. 20:00 17.2° C wolkig
Do, 24.09. 14:00 23.0° C bewölkt
Do, 24.09. 8:00 14.5° C wolkig
Do, 24.09. 2:00 15.6° C leicht bewölkt
Mi, 23.09. 20:00 22.5° C bewölkt
Mi, 23.09. 14:00 27.1° C wolkenlos
Mi, 23.09. 8:00 15.3° C leicht bewölkt
Mi, 23.09. 2:00 15.0° C leicht bewölkt
Ortszeit Temperatur Wetter
Do, 24.09. 22:30 14.4° C wolkig
Do, 24.09. 22:20 14.4° C wolkig
Do, 24.09. 22:10 14.9° C wolkig
Do, 24.09. 22:00 15.2° C wolkig
Do, 24.09. 21:50 15.2° C wolkig
Do, 24.09. 21:40 15.4° C wolkig
Do, 24.09. 21:30 15.6° C wolkig
Do, 24.09. 21:00 15.8° C wolkig
Do, 24.09. 20:30 16.4° C bewölkt
Do, 24.09. 20:00 17.2° C wolkig
Do, 24.09. 19:30 17.2° C wolkig
Ortszeit Relative Feuchte Sichtweite
Do, 24.09. 20:00 70% 40 km
Do, 24.09. 14:00 52% 55 km
Do, 24.09. 8:00 82% 29 km
Do, 24.09. 2:00 89% 19 km
Mi, 23.09. 20:00 57% 35 km
Mi, 23.09. 14:00 41% 45 km
Mi, 23.09. 8:00 80% 29 km
Mi, 23.09. 2:00 77% 27 km
Ortszeit Relative Feuchte Sichtweite
Do, 24.09. 22:30 81% 35 km
Do, 24.09. 22:20 81% -
Do, 24.09. 22:10 81% -
Do, 24.09. 22:00 79% 40 km
Do, 24.09. 21:50 79% -
Do, 24.09. 21:40 79% -
Do, 24.09. 21:30 77% 50 km
Do, 24.09. 21:00 76% 45 km
Do, 24.09. 20:30 71% 35 km
Do, 24.09. 20:00 70% 40 km
Do, 24.09. 19:30 63% 45 km
Ortszeit Niederschlagsmenge Niederschlagsart
Do, 24.09. 20:00 0.1 l/m2 in 12 Std. Sprühregen
Do, 24.09. 14:00 0.0 l/m2 in 6 Std. -
Do, 24.09. 8:00 0.0 l/m2 in 12 Std. -
Do, 24.09. 2:00 0.0 l/m2 in 6 Std. -
Mi, 23.09. 20:00 0.0 l/m2 in 12 Std. -
Mi, 23.09. 14:00 0.0 l/m2 in 6 Std. -
Mi, 23.09. 8:00 0.0 l/m2 in 12 Std. -
Mi, 23.09. 2:00 0.0 l/m2 in 6 Std. -
Ortszeit Niederschlagsmenge Niederschlagsart
Do, 24.09. 22:30 0.0 l/m2 in 1 Std. -
Do, 24.09. 22:20 keine Meldung -
Do, 24.09. 22:10 keine Meldung -
Do, 24.09. 22:00 0.0 l/m2 in 1 Std. -
Do, 24.09. 21:50 keine Meldung -
Do, 24.09. 21:40 keine Meldung -
Do, 24.09. 21:30 0.0 l/m2 in 1 Std. -
Do, 24.09. 21:00 0.0 l/m2 in 1 Std. -
Do, 24.09. 20:30 0.0 l/m2 in 1 Std. -
Do, 24.09. 20:00 0.0 l/m2 in 1 Std. Sprühregen
Do, 24.09. 19:30 0.0 l/m2 in 1 Std. -
Ortszeit Stärke Spitze Richtung
km/h Bft. km/h Grad Sektor
Do, 24.09. 20:00 4 1 36 120° SO
Do, 24.09. 14:00 22 4 37 230° SW
Do, 24.09. 8:00 7 2 17 160° S
Do, 24.09. 2:00 7 2 25 140° SO
Mi, 23.09. 20:00 14 3 40 140° SO
Mi, 23.09. 14:00 11 2 29 220° SW
Mi, 23.09. 8:00 9 2 15 140° SO
Mi, 23.09. 2:00 6 1 11 130° SO
Ortszeit Stärke Spitze Richtung
km/h Bft. km/h Grad Sektor
Do, 24.09. 22:30 6 1 9 90° O
Do, 24.09. 22:20 6 1 - 90° O
Do, 24.09. 22:10 4 1 - 90° O
Do, 24.09. 22:00 7 2 11 70° O
Do, 24.09. 21:50 7 2 - 70° O
Do, 24.09. 21:40 7 2 - 70° O
Do, 24.09. 21:30 4 1 7 80° O
Do, 24.09. 21:00 4 1 7 80° O
Do, 24.09. 20:30 0 0 4 - -
Do, 24.09. 20:00 4 1 7 120° SO
Do, 24.09. 19:30 2 1 6 150° SO
Ortszeit Untergrenze Bedeckung Gattung
total tief tief mittel hoch
Do, 24.09. 20:00 1500 m 8/8 2/8 - - -
Do, 24.09. 14:00 1290 m 7/8 7/8 - - -
Do, 24.09. 8:00 8400 m 8/8 0/8 - - -
Do, 24.09. 2:00 2100 m 2/8 2/8 - - -
Mi, 23.09. 20:00 1800 m 8/8 5/8 - - -
Mi, 23.09. 14:00 - 0/8 0/8 - - -
Mi, 23.09. 8:00 3300 m 3/8 3/8 - - -
Mi, 23.09. 2:00 9000 m 5/8 0/8 - - -
Ortszeit Bedeckungsgrad in Achtel und Wolkenuntergrenze
Do, 24.09. 22:30 7(7200m) 8(8400m) 8(9000m)
Do, 24.09. 22:20 7(7200m) 8(8400m) 8(9000m)
Do, 24.09. 22:10 7(7200m) 8(8400m) 8(9000m)
Do, 24.09. 22:00 8(7500m) 8(9000m) 8(9000m)
Do, 24.09. 21:50 8(7500m) 8(9000m)
Do, 24.09. 21:40 6(7500m) 7(8400m) 8(9000m)
Do, 24.09. 21:30 5(7500m) 7(8400m) 8(9000m)
Do, 24.09. 21:00 1(1500m) 7(6600m) 8(7200m)
Do, 24.09. 20:30 6(1500m) 8(7500m) 8(7500m)
Do, 24.09. 20:00 2(1500m) 8(7800m) 8(9000m)
Do, 24.09. 19:30 7(8100m) 8(8700m)
Ortszeit Luftdruck NN (hPa) Tendenz (hPa in 3 Std.)
Do, 24.09. 20:00 1005 + 0,2
Do, 24.09. 14:00 1005 + 0,4
Do, 24.09. 8:00 1004 + 0,2
Do, 24.09. 2:00 1004 - 0,9
Mi, 23.09. 20:00 1004 + 0,2
Mi, 23.09. 14:00 1005 - 1,0
Mi, 23.09. 8:00 1006 - 0,2
Mi, 23.09. 2:00 1007 - 0,9
Ortszeit Luftdruck NN (hPa) Tendenz (hPa in 3 Std.)
Do, 24.09. 22:30 1005 - 0,6
Do, 24.09. 22:20 1005 keine Meldung
Do, 24.09. 22:10 1005 keine Meldung
Do, 24.09. 22:00 1005 - 0,6
Do, 24.09. 21:50 1005 keine Meldung
Do, 24.09. 21:40 1005 keine Meldung
Do, 24.09. 21:30 1005 - 0,5
Do, 24.09. 21:00 1005 - 0,2
Do, 24.09. 20:30 1005 - 0,1
Do, 24.09. 20:00 1005 + 0,2
Do, 24.09. 19:30 1005 0,0
Ortszeit Schneehöhe (cm)
Do, 24.09. 20:00 -
Do, 24.09. 14:00 -
Do, 24.09. 8:00 -
Do, 24.09. 2:00 -
Mi, 23.09. 20:00 -
Mi, 23.09. 14:00 -
Mi, 23.09. 8:00 -
Mi, 23.09. 2:00 -
Ortszeit Schneehöhe (cm)
Do, 24.09. 22:30 -
Do, 24.09. 22:20 -
Do, 24.09. 22:10 -
Do, 24.09. 22:00 -
Do, 24.09. 21:50 -
Do, 24.09. 21:40 -
Do, 24.09. 21:30 -
Do, 24.09. 21:00 -
Do, 24.09. 20:30 -
Do, 24.09. 20:00 -
Do, 24.09. 19:30 -
Link zu dieser Seite / Seite empfehlen

Das Wetter in ...